CZ-4C DEB, 44617

Orbit data source: Space-Track

CZ-4C DEB, 44617 is space debris in LEO originally from a launch on Tue, 10 Apr 2018 UTC launched from the Taiyaun Space Center, China (TSC). Debris objects in space refer to the collection of defunct objects orbiting the Earth. Examples of debris include non-operational satellites, rocket bodies, and fragments generated from explosions, collisions, or faulty payload assembly.

Loading next visibility...
Identifier
44617, 2018-034J
Orbit
LEO
Country
Flag of CNCN / PRC
Related business
Manufacturer
Unknown
Mission
Spacecraft
Bus & Motor
Unknown
Mass
Unknown
Launch date (UTC)
2018-04-10 (8 years ago)
Launch vehicle
Unknown
Launch site
Taiyaun Space Center, China (TSC)
Object type
Payload
Rocket body
Debris
Shape & HBR
Unknown shape, 0.1 m
Radar Cross Section
Small (<0.1 m²)

Expand to show TLE details & history
Last TLE update: 1 day ago

TLE from 1 day ago
0 CZ-4C DEB
1 44617U 18034J   25340.14419850 -.00000035  00000-0  83134-4 0  9996
2 44617  63.3989 283.0226 0235147   6.8968 353.5197 13.40999066368359
Epoch: 2025-12-06T03:27Z
TLE epoch observation values (Epoch: 2025-12-06T03:27:38.750Z)
Latitude
-0.00004°
Longitude
155.93496°
Altitude
932.508 km
Speed
7.472 km/s
True Right ascension
18h 52m 05s
True Declination
0° 00' 00"
Sunlit
Object was in daylight at epoch
Visualization orbit readout
Latitude
Unknown
Longitude
Unknown
Altitude
Unknown
Speed
Unknown
Apparent Right ascension
Unknown
Apparent Declination
Unknown
Sunlit
N/A
Visualization observer readout
Local Sidereal Time
07:41:31
Azimuth
Unknown
Elevation
Unknown
Doppler factor
Unknown
Orbital elements
Apogee altitude
1,280.341 km
Perigee altitude
928.442 km
Semi-major axis
7,482.528 km
Eccentricity
0.02351
Inclination
63.3989°
RAAN
283.0226°
Arg. of periapsis
6.8968°
True anomaly
353.20645°
Mean anomaly
353.5197°
Eccentric anomaly
353.36401°
Mean motion
3.35329 °/min
Orbital period
107.36 mins
BSTAR
0.000083134
Loading maneuver chart data...
Computing Atmospheric mass density...
Loading historical data...
Loading historical data...
Loading historical data...
Loading historical data...
Loading historical data...
Loading historical data...
Loading historical data...

Documentation

Showing up to 5 results
|